[Date Prev][Date Next][Thread Prev][Thread Next] - [Date Index][Thread Index][Author Index]
2 line ISS Keps 5-12
- Subject: [sarex] 2 line ISS Keps 5-12
- From: "Dr Dave Larsen [ PhD ]" <doc@xxxxxxxxxxx>
- Date: Sat, 12 May 2001 06:31:20 -0700
ISS
1 25544U 98067A 01132.50009733 .00038743 00000-0 47898-3 0 9640
2 25544 51.5714 268.6445 0017358 39.3724 4.9354 15.59548899141501
----
Via the sarex mailing list at AMSAT.ORG courtesy of AMSAT-NA.
To unsubscribe, send "unsubscribe sarex" to Majordomo@amsat.org
AMSAT Home